Regional Weather Roundup
Issued by NWS

Home | Current Version | Previous Version | Text Only | Print | Product List | Glossary On
Versions: 1 2 3 4 5 6 7 8 9 10 11 12 13 14 15 16 17 18 19 20 21 22 23 24 25 26 27 28 29 30 31 32 33 34 35 36 37 38 39 40 41 42 43 44 45 46 47 48 49 50
000
ASUS43 KTOP 302008
RWRKS

WEATHER ROUNDUP FOR KANSAS
NATIONAL WEATHER SERVICE GOODLAND KS
300 PM CDT TUE SEP 30 2014

NOTE:  "FAIR" INDICATES FEW OR NO CLOUDS BELOW 12,000 FEET WITH NO
SIGNIFICANT WEATHER AND/OR OBSTRUCTIONS TO VISIBILITY.

KSZ001>006-013>018-027>032-041>047-302100-
NORTHWEST KANSAS

CITY           SKY/WX    TMP DP  RH WIND       PRES   REMARKS
GOODLAND       SUNNY     72  43  35 SW8       29.79F
HAYS           CLOUDY    75  61  60 S12       29.74F
HILL CITY      SUNNY     78  52  40 SW3       29.74F
RUSSELL        CLOUDY    76  65  68 S10       29.73F
$$

KSZ061>065-074>080-084>089-302100-
SOUTHWEST KANSAS

CITY           SKY/WX    TMP DP  RH WIND       PRES   REMARKS
DODGE CITY     PTSUNNY   82  54  37 SW9       29.73F
GARDEN CITY    MOSUNNY   75  56  51 SW7       29.75F
GREAT BEND     CLOUDY    81  61  50 S16       29.73F
LIBERAL        SUNNY     81  46  30 SW6G17    29.76F
PRATT          CLOUDY    81  54  39 S17G23    29.74F
$$

KSZ066>073-081>083-090>101-302100-
SOUTHEAST KANSAS

CITY           SKY/WX    TMP DP  RH WIND       PRES   REMARKS
CHANUTE        MOSUNNY   82  60  47 S15G23    29.82F
COFFEYVILLE    SUNNY     83  63  50 S14       29.82F
HUTCHINSON     MOSUNNY   86  58  38 S23G31    29.75F
MEDICINE LODGE   N/A     85  58  39 S18G28    29.72F
NEWTON         PTSUNNY   82  59  44 S21G26    29.79F
PARSONS        SUNNY     84  62  47 S10G22    29.84F
WICHITA INTL   PTSUNNY   87  59  38 S20       29.75F
WICHITA JABRA  PTSUNNY   84  58  40 S18G28    29.77F
WICHITA MCCONL SUNNY     85  58  38 S17G30    29.77F
WINFIELD       MOSUNNY   87  60  40 S18G25    29.78F
$$

KSZ007>012-019>026-033>040-048>060-102>105-302100-
NORTHEAST KANSAS

CITY           SKY/WX    TMP DP  RH WIND       PRES   REMARKS
CONCORDIA      CLOUDY    68  66  93 SE7       29.75F
EMPORIA        PTSUNNY   82  62  50 S20       29.80F
LAWRENCE       MOSUNNY   84  58  40 S12G22    29.81F
MANHATTAN      PTSUNNY   83  59  44 S21G26    29.76F
MARYSVILLE     CLOUDY    66  64  94 CALM      29.78F
OLATHE IND     SUNNY     83  58  42 S15       29.84F
OLATHE EXE     MOSUNNY   82  58  43 S16G22    29.83F
SALINA         LGT RAIN  81  66  60 S12       29.74F
TOPEKA BILLARD PTSUNNY   87  58  37 S16G25    29.79F
TOPEKA FORBES  LGT RAIN  84  57  39 S18       29.79F
$$


USA.gov is the U.S. government's official web portal to all federal, state and local government web resources and services.